Hourly Data Report for July 30, 2020

TORONTO CITY
ONTARIO
Current Station Operator: ECCC - MSC

43°40'00.000" N
79°24'00.000" W
112.50 m
6158355
71508
XTO

Download Data

Hourly Data (July 2020)
Hourly Data Report for July 30, 2020
TIME
LST
Temp Definition
°C
Dew Point Definition
°C
Rel Hum Definition
%
Precip. Amount Definition
mm

Wind Dir Definition
10's deg

Wind Spd Definition
km/h
Visibility Definition
km
Stn Press Definition
kPa
Hmdx Definition


Wind Chill Definition


Weather Definition


00:00 22.4 12.7 54 0.0       99.82 25   LegendNANA
01:00 21.3 12.1 56 0.0       99.82     LegendNANA
02:00 20.4 11.5 57 0.0       99.82     LegendNANA
03:00 19.5 12.0 62 0.0       99.82     LegendNANA
04:00 18.6 12.4 67 0.0       99.83     LegendNANA
05:00 18.5 12.0 66 0.0       99.87     LegendNANA
06:00 18.3 12.2 68 0.0       99.89     LegendNANA
07:00 19.7 12.7 64 0.0       99.92     LegendNANA
08:00 21.8 12.9 57 0.0       99.93 25   LegendNANA
09:00 24.2 13.3 50 0.0       99.92 27   LegendNANA
10:00 25.3 12.6 45 0.0       99.90 28   LegendNANA
11:00 26.3 11.3 39 0.0       99.89 28   LegendNANA
12:00 25.5 11.6 42 0.0       99.87 28   LegendNANA
13:00 25.6 11.2 41 0.0       99.86 27   LegendNANA
14:00 27.1 10.2 35 0.0       99.82 28   LegendNANA
15:00 27.6 10.3 34 0.0       99.77 29   LegendNANA
16:00 28.1 10.0 32 0.6       99.72 29   LegendNANA
17:00 27.0 9.8 34 0.0       99.69 28   LegendNANA
18:00 27.0 10.2 35 0.2       99.73 28   LegendNANA
19:00 25.9 12.6 44 0.0       99.79 28   LegendNANA
20:00 24.9 12.8 47 0.0       99.87 28   LegendNANA
21:00 24.0 13.7 53 0.0       99.94 27   LegendNANA
22:00 23.8 14.4 56 0.0       99.93 27   LegendNANA
23:00 23.2 14.4 58 0.0       99.92 27   LegendNANA

Notes on Data Quality.

Legend

  • E = Estimated
  • M = Missing
  • NA = Not Available*
  • [empty] = Indicates an unobserved value
Date modified: